When you browse on this site, cookies collect data to enhance your experience and personalize the content and advertising you see.
Visit our Privacy Policy to learn more. By continuing to use the site, you agree to this use of cookies and data.
  • In Czech Republic
  • List of Countries
  • For 7 days
  • Water Temperature
  • Weather Map
  • Weather Widgets
  • user-avatar
    Login

    Hourly Weather Morusy

    Today, 2 June, Tuesday

    Time Temperature Precipitation Wind Pressure Humidity
    00:00 +10°C° 0 mm 2 mps 727 mmHg 83%
    01:00 +10°C° 0 mm 2 mps 727 mmHg 85%
    02:00 +9°C° 0.7 mm 2 mps 726 mmHg 88%
    03:00 +9°C° 0.7 mm 3 mps 726 mmHg 91%
    04:00 +7°C° 0.7 mm 4 mps 726 mmHg 94%
    05:00 +8°C° 0.1 mm 4 mps 726 mmHg 92%
    06:00 +8°C° 0.1 mm 4 mps 726 mmHg 91%
    07:00 +10°C° 0.1 mm 4 mps 726 mmHg 89%
    08:00 +10°C° 0.2 mm 5 mps 726 mmHg 82%
    09:00 +12°C° 0.2 mm 5 mps 726 mmHg 75%
    10:00 +13°C° 0.2 mm 5 mps 726 mmHg 68%
    11:00 +14°C° 0.1 mm 5 mps 725 mmHg 64%
    12:00 +15°C° 0.1 mm 5 mps 725 mmHg 61%
    13:00 +15°C° 0.1 mm 5 mps 725 mmHg 57%
    14:00 +15°C° 0 mm 5 mps 725 mmHg 57%
    15:00 +15°C° 0 mm 5 mps 724 mmHg 58%
    16:00 +15°C° 0 mm 5 mps 724 mmHg 58%
    17:00 +14°C° 0 mm 4 mps 723 mmHg 64%
    18:00 +13°C° 0 mm 3 mps 723 mmHg 70%
    19:00 +13°C° 0 mm 2 mps 723 mmHg 76%
    20:00 +10°C° 0 mm 2 mps 723 mmHg 79%
    21:00 +9°C° 0 mm 2 mps 723 mmHg 82%
    22:00 +8°C° 0 mm 2 mps 722 mmHg 85%
    23:00 +9°C° 0 mm 1 mps 722 mmHg 85%

    Tomorrow, 3 June, Wednesday

    Time Temperature Precipitation Wind Pressure Humidity
    00:00 +8°C° 0 mm 1 mps 722 mmHg 86%
    01:00 +8°C° 0 mm 1 mps 722 mmHg 87%
    02:00 +8°C° 0 mm 1 mps 722 mmHg 87%
    03:00 +8°C° 0 mm 1 mps 721 mmHg 87%
    04:00 +8°C° 0 mm 1 mps 721 mmHg 87%
    05:00 +9°C° 0 mm 2 mps 721 mmHg 82%
    06:00 +10°C° 0 mm 2 mps 721 mmHg 78%
    07:00 +13°C° 0 mm 2 mps 721 mmHg 73%
    08:00 +14°C° 0.1 mm 2 mps 721 mmHg 67%
    09:00 +14°C° 0.1 mm 3 mps 721 mmHg 62%
    10:00 +16°C° 0.1 mm 3 mps 721 mmHg 56%
    11:00 +16°C° 0.1 mm 3 mps 720 mmHg 55%
    12:00 +17°C° 0.1 mm 3 mps 720 mmHg 54%
    13:00 +17°C° 0.1 mm 3 mps 720 mmHg 52%
    14:00 +17°C° 0 mm 3 mps 720 mmHg 53%
    15:00 +17°C° 0 mm 3 mps 719 mmHg 55%
    16:00 +17°C° 0 mm 3 mps 719 mmHg 56%
    17:00 +14°C° 0 mm 3 mps 719 mmHg 63%
    18:00 +14°C° 0 mm 2 mps 719 mmHg 70%
    19:00 +13°C° 0 mm 2 mps 718 mmHg 77%
    20:00 +12°C° 0 mm 1 mps 718 mmHg 80%
    21:00 +11°C° 0 mm 1 mps 718 mmHg 83%
    22:00 +10°C° 0 mm 1 mps 718 mmHg 86%
    23:00 +9°C° 0 mm 1 mps 718 mmHg 87%

    Day after tomorrow, 4 June, Thursday

    Time Temperature Precipitation Wind Pressure Humidity
    00:00 +9°C° 0 mm 1 mps 718 mmHg 88%
    01:00 +8°C° 0 mm 1 mps 718 mmHg 88%
    02:00 +8°C° 0 mm 1 mps 718 mmHg 88%
    03:00 +8°C° 0 mm 1 mps 718 mmHg 88%
    04:00 +8°C° 0 mm 1 mps 717 mmHg 89%
    05:00 +10°C° 0 mm 1 mps 717 mmHg 82%
    06:00 +11°C° 0 mm 0 mps 717 mmHg 75%
    07:00 +13°C° 0 mm 0 mps 717 mmHg 68%
    08:00 +15°C° 0 mm 1 mps 717 mmHg 63%
    09:00 +16°C° 0 mm 1 mps 717 mmHg 58%
    10:00 +18°C° 0 mm 2 mps 717 mmHg 52%
    11:00 +18°C° 0 mm 2 mps 717 mmHg 50%
    12:00 +19°C° 0 mm 2 mps 717 mmHg 49%
    13:00 +20°C° 0 mm 2 mps 716 mmHg 47%
    14:00 +20°C° 0 mm 2 mps 716 mmHg 51%
    15:00 +20°C° 0 mm 3 mps 716 mmHg 54%
    16:00 +20°C° 0 mm 3 mps 715 mmHg 58%
    17:00 +19°C° 0 mm 3 mps 715 mmHg 65%
    18:00 +18°C° 0 mm 3 mps 715 mmHg 72%
    19:00 +16°C° 0 mm 3 mps 714 mmHg 80%
    20:00 +16°C° 0 mm 3 mps 714 mmHg 82%
    21:00 +14°C° 0 mm 3 mps 713 mmHg 85%
    22:00 +13°C° 0 mm 3 mps 713 mmHg 87%
    23:00 +14°C° 0.1 mm 3 mps 713 mmHg 87%

    5 June, Friday

    Time Temperature Precipitation Wind Pressure Humidity
    00:00 +14°C° 0.1 mm 3 mps 712 mmHg 87%
    01:00 +14°C° 0.1 mm 3 mps 712 mmHg 87%
    02:00 +14°C° 0 mm 3 mps 712 mmHg 85%
    03:00 +14°C° 0 mm 3 mps 712 mmHg 83%
    04:00 +14°C° 0 mm 4 mps 711 mmHg 81%
    05:00 +15°C° 0 mm 5 mps 712 mmHg 80%
    06:00 +15°C° 0 mm 5 mps 712 mmHg 79%
    07:00 +16°C° 0 mm 6 mps 712 mmHg 79%
    08:00 +16°C° 0.1 mm 6 mps 712 mmHg 79%
    09:00 +16°C° 0.1 mm 5 mps 713 mmHg 80%
    10:00 +16°C° 0.1 mm 5 mps 714 mmHg 81%
    11:00 +17°C° 0.2 mm 4 mps 714 mmHg 83%
    12:00 +15°C° 0.2 mm 4 mps 714 mmHg 85%
    13:00 +16°C° 0.2 mm 3 mps 715 mmHg 87%
    14:00 +14°C° 0.2 mm 3 mps 715 mmHg 89%
    15:00 +14°C° 0.2 mm 3 mps 715 mmHg 91%
    16:00 +14°C° 0.2 mm 2 mps 716 mmHg 93%
    17:00 +12°C° 0.7 mm 3 mps 716 mmHg 94%
    18:00 +11°C° 0.7 mm 3 mps 716 mmHg 95%
    19:00 +11°C° 0.7 mm 4 mps 716 mmHg 95%
    20:00 +10°C° 0.2 mm 3 mps 717 mmHg 95%
    21:00 +10°C° 0.2 mm 2 mps 717 mmHg 95%
    22:00 +11°C° 0.2 mm 1 mps 718 mmHg 95%
    23:00 +10°C° 0 mm 2 mps 718 mmHg 95%

    6 June, Saturday

    Time Temperature Precipitation Wind Pressure Humidity
    00:00 +9°C° 0 mm 2 mps 718 mmHg 95%
    01:00 +9°C° 0 mm 3 mps 719 mmHg 94%
    02:00 +9°C° 0 mm 3 mps 719 mmHg 93%
    03:00 +9°C° 0 mm 3 mps 719 mmHg 93%
    04:00 +8°C° 0 mm 4 mps 719 mmHg 92%
    05:00 +10°C° 0 mm 4 mps 720 mmHg 87%
    06:00 +12°C° 0 mm 5 mps 720 mmHg 81%
    07:00 +14°C° 0 mm 6 mps 721 mmHg 76%
    08:00 +15°C° 0 mm 6 mps 721 mmHg 70%
    09:00 +16°C° 0 mm 6 mps 722 mmHg 65%
    10:00 +18°C° 0 mm 7 mps 722 mmHg 59%
    11:00 +18°C° 0 mm 7 mps 722 mmHg 57%
    12:00 +20°C° 0 mm 6 mps 722 mmHg 56%
    13:00 +21°C° 0 mm 6 mps 722 mmHg 54%
    14:00 +21°C° 0 mm 6 mps 722 mmHg 56%
    15:00 +21°C° 0 mm 6 mps 723 mmHg 58%
    16:00 +20°C° 0 mm 5 mps 723 mmHg 60%
    17:00 +19°C° 0 mm 4 mps 723 mmHg 64%
    18:00 +18°C° 0 mm 3 mps 723 mmHg 69%
    19:00 +18°C° 0 mm 1 mps 723 mmHg 74%
    20:00 +16°C° 0 mm 2 mps 723 mmHg 76%
    21:00 +15°C° 0 mm 2 mps 723 mmHg 78%
    22:00 +14°C° 0 mm 2 mps 724 mmHg 80%
    23:00 +14°C° 0 mm 2 mps 724 mmHg 80%

    7 June, Sunday

    Time Temperature Precipitation Wind Pressure Humidity
    00:00 +14°C° 0 mm 2 mps 724 mmHg 80%
    01:00 +14°C° 0 mm 2 mps 724 mmHg 81%
    02:00 +14°C° 0 mm 2 mps 724 mmHg 81%
    03:00 +14°C° 0 mm 2 mps 724 mmHg 81%
    04:00 +14°C° 0 mm 2 mps 724 mmHg 81%
    05:00 +16°C° 0 mm 2 mps 724 mmHg 78%
    06:00 +17°C° 0 mm 2 mps 724 mmHg 76%
    07:00 +18°C° 0 mm 2 mps 724 mmHg 74%
    08:00 +20°C° 0.1 mm 3 mps 724 mmHg 68%
    09:00 +21°C° 0.1 mm 3 mps 724 mmHg 62%
    10:00 +24°C° 0.1 mm 3 mps 724 mmHg 56%
    11:00 +24°C° 0.3 mm 3 mps 724 mmHg 56%
    12:00 +25°C° 0.3 mm 3 mps 724 mmHg 55%
    13:00 +25°C° 0.3 mm 3 mps 723 mmHg 54%
    14:00 +25°C° 0.1 mm 4 mps 723 mmHg 57%
    15:00 +25°C° 0.1 mm 4 mps 723 mmHg 59%
    16:00 +23°C° 0.1 mm 4 mps 722 mmHg 61%
    17:00 +22°C° 0.3 mm 3 mps 722 mmHg 69%
    18:00 +21°C° 0.3 mm 3 mps 722 mmHg 76%
    19:00 +19°C° 0.3 mm 3 mps 722 mmHg 83%
    20:00 +18°C° 0 mm 2 mps 721 mmHg 85%
    21:00 +17°C° 0 mm 2 mps 721 mmHg 87%
    22:00 +16°C° 0 mm 2 mps 721 mmHg 89%
    23:00 +16°C° 0 mm 1 mps 721 mmHg 89%
    Show more